Home   Weather   Castrop-Rauxel   Past weeks

Flag for Germany Past Weather in Castrop-Rauxel, North Rhine-Westphalia, Germany — Yesterday and Last 2 Weeks

Now
45 °F

Scattered clouds.


Feels Like: 38 °F
Forecast: 36 / 57 °F
Wind: 14 mph from West

Location: Dortmund / Wickede

Current Time: Apr 23, 2017 at 12:26:34 pm

Latest Report: Apr 23, 2017 at 11:50 am


Visibility: N/A

Pressure: 30.27 "Hg

Humidity: 57%

Dew Point: 30 °F

Location of Castrop-RauxelLocation

Past Weather in Castrop-Rauxel — Graph

°F

Castrop-Rauxel Temperature Yesterday

Maximum temperature yesterday: 48 °F (at 12:50 pm)
Minimum temperature yesterday: 41 °F (at 5:20 am)
Average temperature yesterday: 44 °F

High & Low Weather Summary for the Past Weeks

 TemperatureHumidityPressure
High73 °F (Apr 9, 5:20 pm)93% (Apr 9, 5:20 am)30.60 "Hg (Apr 9, 5:20 am)
Low25 °F (Apr 20, 5:20 am)28% (Apr 20, 3:20 pm)29.86 "Hg (Apr 15, 6:50 am)
Average46 °F65%30.18 "Hg
* Reported Apr 8 11:20 am — Apr 23 11:20 am, Castrop-Rauxel, Weather by CustomWeather, © 2017

Note: Actual official high and low records may vary slightly from our data, if they occured in-between our weather recording intervals... More about our weather records

Advertising

Castrop-Rauxel Weather History for the Previous 24 Hours

Scroll right to see more
 ConditionsComfort  
Time TempWeatherWind HumidityBarometerVisibility
11:20 am
Sun, Apr 23
45 °FScattered clouds.10 mph57%30.27 "HgN/A
10:50 am45 °FScattered clouds.10 mph53%30.27 "HgN/A
10:20 am43 °FPassing clouds.10 mph61%30.27 "HgN/A
9:50 am43 °FPassing clouds.9 mph61%30.27 "HgN/A
9:20 am41 °FScattered clouds.10 mph70%30.27 "HgN/A
8:50 am39 °FSunny.8 mph75%30.27 "Hg10 mi
8:20 am39 °FPartly sunny.8 mph75%30.24 "HgN/A
7:50 am37 °FBroken clouds.8 mph81%30.24 "HgN/A
7:20 am37 °FScattered clouds.8 mph81%30.24 "HgN/A
6:50 am37 °FPartly sunny.8 mph81%30.24 "HgN/A
6:20 am37 °FSunny.8 mph81%30.24 "Hg10 mi
5:50 am37 °FPartly cloudy.7 mph81%30.24 "HgN/A
5:20 am37 °FPartly cloudy.7 mph81%30.24 "HgN/A
9:50 pm
Sat, Apr 22
41 °FPassing clouds.9 mph66%30.21 "HgN/A
9:20 pm43 °FClear.15 mph57%30.21 "Hg10 mi
8:20 pm45 °FPassing clouds.14 mph53%30.21 "HgN/A
7:50 pm45 °FScattered clouds.13 mph53%30.21 "HgN/A
7:20 pm45 °FSunny.14 mph53%30.21 "Hg10 mi
6:50 pm46 °FSunny.14 mph50%30.21 "Hg10 mi
6:20 pm46 °FSunny.14 mph50%30.21 "Hg10 mi
5:50 pm46 °FPassing clouds.15 mph50%30.21 "HgN/A
5:20 pm46 °FPassing clouds.15 mph50%30.21 "HgN/A
4:50 pm46 °FPassing clouds.15 mph53%30.21 "HgN/A
4:20 pm46 °FScattered clouds.14 mph50%30.21 "HgN/A
3:50 pm46 °FScattered clouds.14 mph53%30.21 "HgN/A
3:20 pm46 °FScattered clouds.15 mph50%30.24 "HgN/A
2:50 pm48 °FPartly sunny.13 mph46%30.24 "HgN/A
1:50 pm46 °FPartly sunny.17 mph53%30.24 "HgN/A
1:20 pm46 °FPartly sunny.15 mph57%30.24 "HgN/A
12:50 pm48 °FPartly sunny.13 mph58%30.24 "HgN/A
12:20 pm46 °FPartly sunny.14 mph57%30.24 "HgN/A
Weather by CustomWeather, © 2017

See weather overviewHow to use our weather pages